Theta_e
316 316 317 317 317 314 315 315 317 318 319 320 319 322 322 322 322 321 321 322 321 320 320 320 319 318 318 320 321 321 322 321 321 321 320 319 320 320 320 319 316 314 314 313
315 316 316 316 316 316 315 315 315 316 316 316 318 319 319 321 322 321 320 321 321 320 320 320 320 319 320 321 322 322 322 322 321 320 319 318 319 320 320 319 316 314 312 311
315 315 316 317 317 316 315 316 315 315 315 316 315 316 319 319 320 321 321 319 320 320 320 321 321 320 320 322 322 322 322 321 320 319 317 316 317 319 320 319 316 313 311 310
318 317 318 317 318 316 316 316 316 315 315 317 318 318 319 320 321 320 320 321 319 319 320 320 320 320 320 320 322 322 322 321 320 318 317 316 316 319 319 318 316 312 310 309
318 317 317 317 317 317 317 317 316 316 316 317 317 317 317 319 320 320 320 320 321 320 319 318 319 320 320 320 320 321 321 321 320 318 317 317 316 318 319 318 316 312 309 308
318 319 319 318 318 318 317 317 317 318 317 317 317 316 316 318 318 319 319 319 320 321 320 319 318 318 319 319 319 319 321 321 320 319 318 317 316 319 318 318 315 310 307 307
316 318 318 318 317 318 316 319 320 320 318 319 316 318 319 320 320 320 320 320 319 318 319 320 319 318 318 318 318 318 319 320 320 319 319 317 316 319 318 317 312 308 307 306
315 316 317 318 317 317 318 321 320 320 321 321 321 321 321 320 320 320 319 319 318 318 318 319 319 318 318 318 318 317 317 317 318 318 317 315 318 318 318 315 309 307 306 306
315 315 315 317 317 318 318 318 318 320 320 320 320 320 320 320 319 319 319 319 318 317 318 318 317 318 317 317 317 316 316 315 315 315 315 318 319 318 317 310 307 306 305 305
315 315 315 318 318 317 318 318 318 318 319 320 319 318 319 319 318 318 319 318 317 318 317 317 317 316 316 316 316 315 314 314 314 315 318 318 318 317 312 307 305 305 305 304
315 315 316 317 317 318 318 318 318 318 318 318 319 318 318 317 317 318 319 318 318 318 317 316 316 315 315 315 314 314 314 314 316 318 318 318 317 313 307 305 305 305 304 303
317 316 316 316 317 316 316 317 317 317 317 317 317 317 317 316 316 317 318 318 318 318 317 316 314 314 314 314 314 314 315 317 318 318 317 317 314 307 305 305 304 304 303 303
316 316 316 316 316 316 316 316 316 317 317 317 317 317 317 316 316 316 316 317 318 318 317 316 315 314 314 314 315 316 318 318 317 317 316 313 308 305 305 304 303 303 303 303
315 316 316 316 315 315 315 315 315 315 315 317 317 317 317 317 316 316 316 316 317 317 316 316 315 314 313 315 317 318 317 317 316 315 313 308 305 305 304 303 303 303 303 303
314 315 314 315 315 315 315 315 315 314 314 315 315 315 315 316 315 315 316 316 316 316 316 315 315 315 315 317 317 317 317 316 315 313 308 305 304 303 303 303 303 303 303 303
313 312 313 313 314 314 315 315 315 315 314 314 315 315 315 316 315 315 316 315 316 316 316 315 315 316 317 317 317 316 315 314 312 308 305 304 303 303 303 303 303 303 303 303
312 312 313 313 314 314 314 314 315 315 315 315 315 315 315 315 316 316 315 316 316 315 315 315 316 316 317 317 316 315 314 312 308 305 304 303 303 303 303 303 303 303 303 303
312 312 312 313 313 314 314 315 315 315 315 315 315 315 315 315 316 316 315 315 315 315 315 315 315 316 316 315 314 314 312 308 305 303 303 303 303 303 303 303 303 303 303 302
308 310 310 312 313 313 314 314 314 315 315 315 315 314 314 314 315 315 315 315 315 315 315 315 315 315 315 313 312 310 306 304 303 303 303 303 303 303 303 303 303 303 303 302
309 310 310 311 312 312 313 314 314 314 314 315 315 314 314 314 315 315 315 315 315 315 314 314 314 313 312 311 308 304 303 303 303 303 302 302 302 303 303 303 303 302 302 300
310 310 311 312 312 313 313 313 313 314 314 314 314 314 314 314 315 314 314 314 313 312 312 311 310 309 308 305 303 303 303 302 302 302 302 302 302 302 302 302 301 301 301 300
311 311 311 312 312 313 313 313 313 313 314 314 314 314 314 314 314 313 312 313 310 308 309 307 306 304 303 302 302 302 302 301 301 300 300 300 300 300 300 299 299 299 299 299
306 307 308 309 309 310 312 313 313 313 313 313 314 314 314 312 312 311 308 306 307 304 303 302 302 302 302 302 301 300 299 299 298 297 297 296 296 296 296 296 296 296 296 296
304 305 306 307 307 310 312 312 312 312 311 312 311 311 311 310 306 306 306 303 301 301 301 301 301 301 300 300 299 297 296 296 295 295 295 294 294 294 294 293 293 293 293 294
303 304 305 306 307 306 306 307 308 307 307 307 306 305 305 305 307 303 301 299 300 300 301 301 301 300 298 296 295 295 295 295 294 294 293 293 293 293 293 293 292 292 292 292
299 298 299 299 299 299 299 301 300 299 301 301 300 300 301 300 299 300 300 300 300 300 300 299 296 295 294 294 294 294 293 293 293 293 293 292 292 292 292 292 292 292 292 292
294 295 295 296 295 295 296 296 296 295 296 296 296 297 299 299 300 300 300 298 296 294 293 293 293 293 293 292 292 292 292 291 291 290 290 289 289 289 289 289 289 289 289 289
Wind_Speed
13 18 6 8 8 14 17 19 10 8 17 16 10 7 11 14 14 22 28 28 30 31 31 29 28 28 27 27 26 25 24 23 21 18 17 14 12 14 18 22 20 19 18 18
17 14 13 14 13 13 18 21 19 21 25 17 26 26 15 9 21 27 25 32 33 34 34 33 32 33 32 31 31 29 29 26 23 22 19 17 14 15 18 21 21 20 19 19
10 10 10 15 24 21 17 19 14 22 23 16 12 13 20 23 25 25 31 33 36 39 39 37 36 35 36 35 33 33 32 30 28 25 21 17 16 16 19 22 22 21 20 20
3 3 9 7 2 9 25 23 24 24 13 19 21 35 28 23 23 27 31 34 39 40 40 40 39 38 37 37 37 37 35 34 32 29 25 21 19 18 20 22 23 22 21 20
5 8 15 22 6 5 6 13 21 23 20 38 32 30 32 26 29 26 25 29 36 38 42 42 41 42 42 41 41 40 40 38 36 32 28 24 21 20 21 22 23 22 20 19
3 6 9 1 7 19 7 17 11 21 22 23 18 10 12 28 29 31 36 35 31 28 36 38 39 40 43 45 44 44 43 41 38 35 30 26 21 21 21 23 24 21 18 18
16 14 9 8 5 12 7 5 2 10 27 23 9 17 22 16 11 11 13 18 26 31 28 34 35 36 40 45 48 46 42 40 39 35 30 24 21 21 21 24 23 19 17 17
13 16 24 10 10 18 7 1 4 7 5 5 8 9 14 19 24 27 22 21 19 24 29 31 33 35 38 42 41 42 41 39 37 33 27 22 20 20 22 24 21 18 18 18
13 10 22 20 13 20 34 35 22 8 6 8 7 9 9 13 14 19 21 19 20 21 25 29 33 37 39 39 37 37 37 36 32 28 23 20 19 20 24 22 19 17 18 19
7 20 14 20 24 32 20 30 33 30 21 16 17 17 13 13 17 17 18 18 17 18 22 27 28 28 30 32 34 33 30 29 27 23 19 17 18 23 23 18 17 17 19 20
17 20 15 24 24 24 25 26 26 30 23 22 21 21 20 22 22 19 18 18 16 16 19 23 23 24 26 28 29 28 27 25 22 18 16 16 21 22 18 16 17 19 20 22
13 12 20 19 26 32 33 30 29 33 36 32 27 28 26 25 24 23 22 21 18 17 18 21 21 25 28 27 26 26 24 21 18 16 16 20 21 18 16 17 19 20 19 19
22 30 27 22 20 23 27 23 23 32 33 32 33 31 27 25 22 24 25 26 23 22 22 22 22 27 29 26 25 23 20 19 16 16 19 19 17 16 17 18 19 19 19 17
43 43 34 35 23 26 28 30 27 27 27 24 23 24 22 24 27 28 29 32 30 28 27 26 25 28 28 26 23 21 18 16 16 17 17 16 15 16 17 17 17 17 17 17
45 42 39 38 36 32 33 31 36 38 36 35 30 30 28 29 32 33 34 32 31 29 28 28 28 29 27 25 22 19 17 16 17 17 16 16 16 16 16 16 16 15 15 16
43 53 50 47 45 41 37 39 36 39 39 38 40 40 36 37 35 32 30 27 28 30 31 32 32 31 28 25 22 19 17 17 17 16 16 16 15 15 14 14 13 13 13 14
38 38 42 44 44 41 40 41 40 37 35 35 40 35 37 33 33 32 29 29 28 29 31 31 32 31 28 24 20 18 17 17 16 16 16 15 15 14 12 12 12 13 14 14
45 49 51 47 44 40 41 43 44 47 48 47 42 35 30 29 34 35 33 32 30 30 31 31 32 30 26 22 19 18 18 17 16 15 14 13 12 11 11 12 12 13 12 13
60 54 55 50 46 47 46 47 47 43 47 50 46 48 47 43 39 36 31 32 34 35 33 31 30 27 24 21 18 17 16 15 14 13 12 10 9 9 10 11 11 12 13 14
45 43 42 46 47 48 50 51 51 50 48 37 37 43 43 39 36 34 33 35 35 33 30 29 28 26 22 19 17 16 14 12 11 10 10 8 8 9 10 11 12 14 14 15
41 43 43 45 47 48 47 48 46 46 45 43 45 39 36 33 33 32 33 33 27 26 27 27 25 21 18 16 15 13 13 11 9 9 10 9 8 9 12 13 15 16 17 18
16 18 24 30 32 38 40 38 36 38 38 36 38 37 35 29 27 29 29 29 25 23 24 24 21 17 14 12 11 10 9 10 8 9 10 10 9 11 13 15 16 18 19 19
25 25 30 36 37 33 27 29 27 28 26 21 25 28 27 26 27 30 29 26 25 24 22 19 16 14 13 11 9 7 8 9 9 10 9 10 10 12 15 16 18 20 21 21
17 17 21 24 23 20 19 17 18 16 16 17 18 21 23 27 26 23 25 25 23 24 22 19 15 13 11 8 7 9 8 8 9 10 10 11 12 14 17 17 18 18 20 21
3 1 4 8 12 16 19 20 21 21 22 23 24 24 24 25 28 30 31 28 24 20 17 14 11 9 6 7 9 9 9 10 12 11 12 12 12 14 15 16 17 18 20 20
18 22 22 22 20 20 21 21 25 24 27 29 27 25 26 30 31 29 24 20 17 16 13 11 10 9 8 7 7 7 8 8 9 9 9 9 11 12 14 16 18 19 20 21
26 26 27 29 27 25 26 28 29 31 33 37 38 32 29 26 24 22 19 17 14 12 10 8 6 5 5 4 4 3 3 4 5 7 8 9 11 13 15 16 17 18 20 21
Wind_Direction
265 277 220 230 216 205 217 226 215 226 236 255 269 188 216 222 214 203 202 204 208 212 216 216 215 216 216 217 215 213 213 213 214 220 231 249 274 312 325 326 323 319 318 315
257 272 286 272 243 220 213 231 245 266 265 265 283 298 286 233 216 225 215 212 218 220 220 218 218 218 218 218 219 217 216 217 217 222 232 246 266 299 320 321 319 316 315 315
260 264 271 269 239 235 227 222 206 234 242 248 271 262 252 254 243 233 227 224 221 225 225 222 222 223 222 223 223 221 220 219 221 225 234 249 266 291 313 316 315 313 311 310
256 294 244 253 110 222 224 226 219 239 241 245 228 249 252 251 255 248 238 234 229 229 231 232 227 227 230 227 226 226 224 223 223 227 236 249 264 287 304 310 313 310 309 308
200 217 271 283 253 193 188 246 230 241 244 254 250 267 271 260 254 254 247 245 243 242 240 240 235 230 229 229 229 228 228 226 226 229 237 247 262 284 297 307 309 308 306 308
198 212 228 166 225 241 157 264 219 226 233 241 244 236 263 262 260 258 263 252 246 247 243 241 241 237 230 231 230 231 230 229 228 231 238 247 262 282 295 304 307 304 304 304
225 243 259 231 125 108 138 236 250 286 229 229 218 233 253 261 237 268 276 259 253 247 242 239 241 237 233 232 234 236 234 229 228 232 237 246 263 281 294 303 302 298 296 301
225 229 256 190 206 209 190 255 29 357 346 292 271 265 248 248 268 277 277 263 249 241 240 229 230 235 233 234 237 235 234 229 228 229 234 247 266 282 296 296 293 291 296 302
190 230 280 277 229 227 236 260 266 268 287 300 295 279 259 248 271 285 282 274 262 252 240 236 233 230 232 238 233 230 231 228 224 224 235 250 268 287 290 288 287 290 296 302
215 233 245 254 260 255 251 250 262 271 270 263 262 279 274 279 294 292 281 278 268 257 240 238 239 234 230 227 226 224 220 215 214 222 239 258 278 284 284 282 283 290 296 299
233 236 256 257 265 262 255 251 262 273 277 270 263 264 267 283 287 288 282 277 267 258 243 238 235 223 217 217 216 210 207 206 214 229 247 268 278 279 278 278 285 291 293 293
250 267 233 243 246 262 273 266 265 269 276 275 276 276 275 275 278 278 277 270 259 252 243 237 224 216 214 214 210 206 203 211 224 238 259 270 272 273 275 281 285 288 288 290
283 287 297 299 289 268 260 266 279 269 264 271 276 276 278 278 277 276 273 266 265 257 247 241 226 218 215 209 201 203 213 223 234 255 265 269 270 272 277 279 285 289 292 294
267 278 281 281 279 289 279 278 275 277 279 278 271 270 271 270 280 277 270 265 262 253 243 239 229 221 211 205 206 213 220 234 253 263 267 267 267 269 273 277 282 287 291 297
268 263 266 272 278 278 271 270 271 271 271 272 274 273 272 271 274 278 283 268 258 248 243 237 227 218 209 210 215 222 232 247 259 263 263 261 264 270 273 276 279 285 288 293
251 258 267 275 276 270 267 264 264 262 263 266 266 265 267 269 274 277 272 257 242 241 241 234 225 221 216 217 219 226 240 251 257 258 256 260 263 264 267 271 277 280 283 289
251 257 257 256 256 260 260 262 265 261 259 257 257 268 257 260 264 266 257 256 251 245 242 235 225 219 215 216 220 231 242 250 251 249 251 254 255 258 264 272 276 279 281 283
244 251 256 254 256 259 260 259 261 260 257 259 258 261 259 257 260 263 263 250 239 235 235 230 222 215 211 213 223 234 243 243 241 241 240 244 251 261 269 273 278 282 285 289
246 244 250 255 255 257 257 257 258 259 257 255 254 253 258 263 263 261 257 246 241 232 228 219 211 208 209 214 221 229 233 233 230 230 233 239 253 266 271 272 273 277 284 294
255 250 250 258 258 253 252 250 252 252 251 253 253 246 250 249 250 252 248 242 238 235 221 207 203 202 204 211 217 220 221 222 224 229 232 237 251 265 271 275 279 284 288 291
254 258 253 253 255 253 249 253 256 257 257 253 251 251 244 246 243 241 230 218 217 213 205 200 196 196 198 204 204 205 210 209 211 229 245 248 252 259 271 279 286 293 296 299
254 246 247 252 259 259 257 257 256 254 251 255 246 247 243 230 219 209 215 219 198 187 188 187 189 189 184 184 188 189 204 211 215 229 248 259 269 276 280 286 290 292 293 296
279 272 267 266 267 266 269 259 256 247 248 255 231 219 210 199 202 201 184 178 179 169 170 167 162 160 158 169 181 196 225 239 240 246 256 267 277 281 285 288 290 292 294 295
294 287 279 270 265 250 223 213 207 199 198 199 192 193 199 190 178 177 169 156 156 154 152 145 148 159 174 179 200 219 232 243 252 260 267 276 282 285 287 289 292 295 295 295
305 51 147 164 168 145 152 151 154 150 157 155 158 161 168 170 172 150 149 146 144 146 148 149 151 141 163 198 214 226 239 257 266 273 275 279 287 287 288 292 294 296 295 297
95 90 91 91 94 105 120 131 125 128 136 135 134 139 140 138 134 135 139 138 134 133 136 145 165 183 201 219 238 252 256 260 269 277 288 297 295 294 296 295 296 295 298 301
84 94 98 99 100 105 111 114 120 118 120 120 117 119 122 124 125 124 123 125 132 140 143 146 163 187 198 203 212 224 255 276 292 301 310 314 313 310 305 305 309 313 314 315